アトラス彗星

C/2020 R4 ( ATLAS )

English version
Home page
Updated on May 31, 2021

---------------------------------------------------------------------

・ プロフィール

発見日 2020年9月12日
発見光度 19.7等
発見者 Asteroid Terrestrial-Impact Last Alert System (ATLAS) search program

・ 写真集

・ 軌道要素

Epoch 2021 Mar. 7.0 TT = JDT 2459280.5
T 2021 Mar. 1.93698 TT                                  Rudenko
q   1.0286125            (2000.0)            P               Q
z  +0.0102839      Peri.   46.71012     +0.13018977     -0.97846467
 +/-0.0000006      Node   323.27245     -0.96946660     -0.15948674
e   0.9894218      Incl.  164.46338     -0.20781033     +0.13103765
From 605 observations 2020 Aug. 29-2021 May 2, mean residual 0".9.

・ 星図

・ 光度変化

        m1 = 13.0 + 5 logΔ + 10.0 log r  [   ,-85]  (              〜2020年12月 6日)
        m1 =  8.5 + 5 logΔ + 15.0 log r  [-85,   ]  (2020年12月 6日〜              )

---------------------------------------------------------------------

軌道要素はM.P.E.C. 2021-J28に掲載されたものです。
星図はステラナビゲータ Ver.10 (アストロアーツ) で作成したものです。
光度グラフはComet for Windowsで作成したものです。

---------------------------------------------------------------------

Copyright(C) Seiichi Yoshida (comet@aerith.net). All rights reserved.